This demonstration page uses our WeatherBlox Daily Observations layout. Learn more.

Left ArrowRight Arrow

39.92423, -83.80882

Hourly Observations for November 3, 2015

Temp ( °F °C ) Dew Point ( °F °C ) Humidity (%) Winds ( mph kmh ) Pressure ( in mb ) Visibility ( mi km ) Precip ( " mm )
12:56 am 00:56 Clear 44 6.6 43 6.1 97 97 E 5 7 30.1 1019 10 16.0934 0 0
1:56 am 01:56 Clear 42 5.5 42 5.5 100 100 E 5 7 30.11 1020 10 16.0934 0 0
2:56 am 02:56 Clear with Mist and Fog 42 5.5 42 5.5 100 100 ENE 3 6 30.11 1020 5 8.0467 0 0
3:07 am 03:07 Clear with Mist and Fog 43 6 43 6 100 100 ENE 5 7 30.15 1021 2.5 4.02335 0 0
3:19 am 03:19 Clear with Mist and Fog 43 6 43 6 100 100 NNE 6 9 30.15 1021 6 9.65604 0 0
3:56 am 03:56 Clear with Mist and Fog 42 5.5 41 5 97 97 Calm 30.12 1020 4 6.43736 0 0
4:07 am 04:07 Clear with Mist and Fog 43 6 41 5 93 93 Calm 30.15 1021 1.75 2.816345 0 0
4:25 am 04:25 Clear with Mist and Fog 41 5 39 4 93 93 Calm 30.15 1021 3 4.82802 0 0
4:31 am 04:31 Clear with Mist and Fog 41 5 39 4 93 93 NE 3 6 30.15 1021 1.75 2.816345 0 0
4:56 am 04:56 Clear with Mist and Fog 40 4.4 40 4.4 100 100 ENE 3 6 30.12 1020 1.5 2.41401 0 0
5:26 am 05:26 Clear with Mist and Fog 41 5 41 5 100 100 E 5 7 30.15 1021 2.5 4.02335 0 0
5:47 am 05:47 Clear with Mist and Fog 39 4 39 4 100 100 Calm 30.21 1023 1.5 2.41401 0 0
5:56 am 05:56 Clear with Mist and Fog 40 4.4 40 4.4 100 100 ENE 3 6 30.15 1021 3 4.82802 0 0
6:02 am 06:02 Clear with Mist and Fog 39 4 39 4 100 100 E 3 6 30.21 1023 1.75 2.816345 0 0
6:19 am 06:19 Clear with Mist and Fog 41 5 39 4 93 93 ENE 3 6 30.18 1022 1.25 2.011675 0 0
6:43 am 06:43 Clear with Mist and Fog 41 5 41 5 100 100 NE 5 7 30.18 1022 1.75 2.816345 0 0
6:49 am 06:49 Clear with Mist and Fog 39 4 39 4 100 100 NE 6 9 30.21 1023 3 4.82802 0 0
6:56 am 06:56 Clear with Mist and Fog 40 4.4 40 4.4 100 100 NE 6 9 30.16 1021 6 9.65604 0 0
7:11 am 07:11 Sunny with Mist and Fog 39 4 39 4 100 100 NE 5 7 30.21 1023 1.75 2.816345 0 0
7:20 am 07:20 Sunny with Mist and Fog 39 4 39 4 100 100 NE 5 7 30.24 1024 1.25 2.011675 0 0
7:39 am 07:39 Sunny with Mist and Fog 41 5 41 5 100 100 NE 6 9 30.21 1023 2 3.21868 0 0
7:47 am 07:47 Sunny 43 6 43 6 100 100 NE 3 6 30.21 1023 9 14.48406 0 0
7:56 am 07:56 Sunny with Mist and Fog 44 6.6 43 6.1 97 97 ENE 3 6 30.19 1022 2 3.21868 0 0
8:03 am 08:03 Sunny with Mist and Fog 45 7 45 7 100 100 ENE 5 7 30.21 1023 1.5 2.41401 0 0
8:20 am 08:20 Sunny with Mist and Fog 48 9 46 8 94 94 NE 5 7 30.21 1023 2 3.21868 0 0
8:32 am 08:32 Sunny with Mist and Fog 52 11 46 8 82 82 ENE 5 7 30.24 1024 1.5 2.41401 0 0
8:40 am 08:40 Sunny with Mist and Fog 52 11 48 9 88 88 E 5 7 30.24 1024 1.25 2.011675 0 0
8:56 am 08:56 Hazy 54 12.2 48 8.8 80 80 E 6 9 30.2 1023 1.25 2.011675 0 0
9:06 am 09:06 Hazy 55 13 48 9 77 77 ESE 6 9 30.21 1023 1.75 2.816345 0 0
9:21 am 09:21 Hazy 55 13 48 9 77 77 E 6 9 30.21 1023 2 3.21868 0 0
9:56 am 09:56 Hazy 61 16.1 51 10.5 70 70 E 6 9 30.21 1023 2 3.21868 0 0
10:11 am 10:11 Sunny 63 17 52 11 68 68 E 5 7 30.21 1023 10 16.0934 0 0
10:56 am 10:56 Sunny 67 19.4 55 12.7 65 65 ESE 5 7 30.21 1023 10 16.0934 0 0
11:56 am 11:56 Sunny 72 22.2 57 13.8 59 59 SE 8 13 30.19 1022 10 16.0934 0 0
12:56 pm 12:56 Sunny 74 23.3 58 14.4 57 57 VRB 7 11 30.17 1022 10 16.0934 0 0
1:56 pm 13:56 Sunny 76 24.4 58 14.4 54 54 ESE 8 13 30.15 1021 10 16.0934 0 0
2:56 pm 14:56 Sunny 76 24.4 58 14.4 54 54 SE 7 11 30.15 1021 10 16.0934 0 0
3:56 pm 15:56 Sunny 75 23.8 58 14.4 56 56 SSE 8 13 30.15 1021 10 16.0934 0 0
4:56 pm 16:56 Sunny 72 22.2 58 14.4 61 61 ESE 7 11 30.16 1021 10 16.0934 0 0
5:56 pm 17:56 Clear 64 17.7 56 13.3 76 76 ESE 5 7 30.18 1022 10 16.0934 0 0
6:56 pm 18:56 Clear 59 15 54 12.2 83 83 E 3 6 30.19 1022 10 16.0934 0 0
7:56 pm 19:56 Clear 57 13.8 54 12.2 90 90 NE 5 7 30.2 1023 10 16.0934 0 0
8:56 pm 20:56 Clear 55 12.7 54 12.2 97 97 NE 5 7 30.2 1023 10 16.0934 0 0
9:56 pm 21:56 Clear 52 11.1 51 10.5 96 96 ENE 5 7 30.2 1023 10 16.0934 0 0
10:56 pm 22:56 Clear 54 12.2 53 11.6 96 96 ESE 5 7 30.19 1022 10 16.0934 0 0
11:56 pm 23:56 Clear 53 11.6 51 10.5 93 93 E 3 6 30.19 1022 10 16.0934 0 0

Powered by AerisWeather